202  
ASUS43 KLOT 200608  
RWRIL  
 
ILLINOIS REGIONAL WEATHER ROUNDUP  
NATIONAL WEATHER SERVICE CHICAGO/ROMEOVILLE IL  
100 AM CDT SAT OCT 20 2018  
 
NOTE: "FAIR" INDICATES FEW OR NO CLOUDS BELOW 12,000 FEET WITH NO  
SIGNIFICANT WEATHER AND/OR S TO VISIBILITY
.  
 
* THESE STATIONS ARE NOT UNDER NWS QUALITY CONTROL. THEY ALSO MAY NOT  
REPORT WEATHER SUCH AS PRECIPITATION OR FOG.
 
 
ILZ001-002-007-009-015-016-024-200700-  
NORTHWEST ILLINOIS  
 
CITY SKY/WX TMP DP RH WIND PRES REMARKS
 
MOLINE FAIR 49 38 65 W9 29.96S  
6HR MIN TEMP: 48; 6HR MAX TEMP: 57;  
 
SAVANNA* FAIR 50 37 62 W9 29.93R  

 
 
ILZ003-004-008-010-011-017-018-200700-  
NORTH CENTRAL ILLINOIS  
 
CITY SKY/WX TMP DP RH WIND PRES REMARKS
 
ROCKFORD FAIR 46 37 71 W9 29.90R  
6HR MIN TEMP: 46; 6HR MAX TEMP: 54;  
 
FREEPORT* FAIR 46 36 66 W8 29.91S  
ROCHELLE* FAIR 44 40 86 W9 29.90S  
DE KALB* FAIR 49 41 75 W10 29.89R  
PERU* FAIR 53 44 72 NW15G21 29.92S  

 
 
ILZ005-006-012>014-019>023-200700-  
NORTHEAST ILLINOIS  
 
CITY SKY/WX TMP DP RH WIND PRES REMARKS
 
CHICAGO-OHARE FAIR 50 46 86 W8 29.85R  
6HR MIN TEMP: 50; 6HR MAX TEMP: 54; 6HR PCP: TRACE;  
 
CHICAGO-MIDWAY FAIR 50 46 86 W8 29.86R  
6HR MIN TEMP: 50; 6HR MAX TEMP: 53;  
 
AURORA FAIR 49 43 80 W13 29.88R  
6HR MIN TEMP: 49; 6HR MAX TEMP: 54;  
 
LANSING* FAIR 47 46 93 W7 29.87S  
JOLIET* FAIR 51 47 89 W6 29.88S  
WAUKEGAN FAIR 50 43 77 VRB5 29.83R  
6HR MIN TEMP: 50; 6HR MAX TEMP: 55;  
 
DUPAGE AIRPORT FAIR 50 43 77 W10 29.86S  
6HR MIN TEMP: 48; 6HR MAX TEMP: 53;  
 
KANKAKEE* FAIR 50 47 91 W13 29.90S  
WHEELING FAIR 52 45 77 W9 29.86R  
6HR MIN TEMP: 52; 6HR MAX TEMP: 56;  
 
MORRIS* FAIR 48 45 90 W9 29.88S  
ROMEOVILLE* FAIR 47 46 95 W7 29.88R  
NORTHERLY ISL N/A 52 47 83 W7 N/A  

 
 
LMZ740>746-200700-  
SOUTHERN LAKE MICHIGAN  
 
STATION/POSITION SKY/WX TEMP WIND PRES VSBY WAVE
 
AIR SEA DIR/SP/G HT/PER  
(F) (DEG/KT/KT) (MB) (MI) (FT/S)  
SOUTHERN BUOY 56 56 290/ 17/ 21 1008.7R 4/ 5  
WINTHROP HARBOR 52 51 N/A 1  
WAUKEGAN HARBOR 53 54 290/ 8 N/A 1  
WILMETTE HARBOR 54 57 270/ 12/ 14 N/A 1/ 2  
HARRISON CRIB 54 270/ 16/ 17 N/A  
NORTHERLY ISL 52 270/ 5/ 7 N/A  
CALUMET HARBOR 51 240/ 5/ 8 1010.6R  
BURNS HARBOR 55 260/ 9/ 12 1011.2S  
MICHIGAN CITY 55 240/ 26/ 29 N/A  
MICHIGAN CITY 6N 55 57 290/ 16/ 21 N/A 4/ 4  
ST. JOSEPH 56 57 310/ 17/ 21 1010.0 5/ 5  

 
 
ILZ025>027-034>036-040-047-049-050-058-095>099-200700-  
WEST-CENTRAL ILLINOIS  
 
CITY SKY/WX TMP DP RH WIND PRES REMARKS
 
QUINCY CLEAR 49 47 93 W6 30.03R  
GALESBURG* FAIR 44 39 82 W8 29.99S  
MACOMB* CLEAR 47 44 90 W7 30.02S  
JACKSONVILLE* CLEAR 48 47 95 W6 30.02R  
PITTSFIELD* PTCLDY 52 50 95 W3 30.04S  

 
 
ILZ028>032-037-038-041>044-048-051>054-059>061-200700-  
CENTRAL ILLINOIS  
 
CITY SKY/WX TMP DP RH WIND PRES REMARKS
 
PONTIAC FAIR 50 49 98 W10 29.93S  
BLOOMINGTON FAIR 50 48 93 W10 29.96R  
DECATUR FAIR 51 48 89 W7 29.98R  
PEORIA FAIR 51 45 79 W6 29.96S  
6HR MIN TEMP: 50; 6HR MAX TEMP: 57;  
 
LACON* FAIR 50 42 73 W7 29.94S  
LINCOLN* FAIR 53 50 90 W7 29.97S  
SPRINGFIELD FAIR 48 48 100 W9 30.00R  
6HR MIN TEMP: 48; 6HR MAX TEMP: 56;  
 
TAYLORVILLE FAIR 50 49 95 W10 30.01R  
6HR MIN TEMP: 50; 6HR MAX TEMP: 54;  
 

 
 
ILZ033-039-045-046-055>057-062-063-200700-  
EAST-CENTRAL ILLINOIS  
 
CITY SKY/WX TMP DP RH WIND PRES REMARKS
 
CHAMPAIGN FAIR 49 47 93 W9 29.96R  
DANVILLE* FAIR 49 48 95 SW13 29.91S  
RANTOUL* FAIR 52 50 95 W9 29.94R  
MATTOON FAIR 51 49 92 W8G20 29.98R  
PARIS* FAIR 50 48 92 SW13G18 29.97S  

 
 
ILZ079-100>102-200700-  
SOUTHWEST ILLINOIS  
 
CITY SKY/WX TMP DP RH WIND PRES REMARKS
 
ALTON CLOUDY 51 51 100 W9 30.03S  
BELLEVILLE CLOUDY 49 49 97 W3 30.02R  
CAHOKIA* PTCLDY 52 49 89 W5 30.04R  
SPARTA* CLOUDY 49 49 100 SW3 30.05S  

 
 
ILZ064>066-069>071-074>076-080>082-084>086-088>090-092>094-200700-  
SOUTH-CENTRAL ILLINOIS  
 
CITY SKY/WX TMP DP RH WIND PRES REMARKS
 
CARBONDALE MOCLDY 49 48 97 SW6 30.06F  
6HR MIN TEMP: 49; 6HR MAX TEMP: 51;  
 
CAIRO* CLOUDY 51 51 100 SW6 30.09S  
EFFINGHAM* CLOUDY 53 51 95 SW8 30.02S  
MARION CLOUDY 50 49 97 SW3 30.06F  
MT. VERNON CLOUDY 51 50 96 SW7 30.04F  
CENTRALIA* CLOUDY 51 51 100 CALM 30.03S  
SALEM* CLOUDY 53 52 95 SW10 30.03S  
METROPOLIS* CLOUDY 52 51 96 SW7 30.09S  

 
 
ILZ067-068-072-073-078-083-087-091-200700-  
SOUTHEAST ILLINOIS  
 
CITY SKY/WX TMP DP RH WIND PRES REMARKS
 
LAWRENCEVILLE CLOUDY 53 50 89 SW9 30.01S  
FLORA* CLOUDY 53 52 95 W6 30.02S  
FAIRFIELD* CLOUDY 51 51 100 SW6 30.02F  
HARRISBURG* CLOUDY 51 51 100 SW6 30.06F  
ROBINSON* CLOUDY 51 51 99 W9 30.01R  
CARMI* CLOUDY 52 52 100 SW9 30.04S  

 
 
ABBREVIATIONS USED IN REMARKS  
TC - TEMPERATURE IN CELSIUS  
WCI - WIND CHILL INDEX  
HX - HEAT INDEX  
VSB - VISIBILITY  

 
 
 
 
CLICK HERE TO GO TO PREVIOUS BULLETINS.

The Nexlab IL Page Main Text Page